This is the latest recevied weather packets stored in our database for station/object K1BWE-1. If no packets are shown the sender has not sent any weather packets the latest 10 day(s).
| Time | Temp. | Humidity | Pressure | Rain* | Wind** | Luminosity | Snow |
|---|---|---|---|---|---|---|---|
| 1777995341 | 15° C | 90% | 1014.2 hPa | 0 mm | - | 216 W/m² | - |
| 1777995038 | 15° C | 91% | 1014.2 hPa | 0 mm | - | 215 W/m² | - |
| 1777994735 | 15° C | 91% | 1014.1 hPa | 0 mm | - | 88 W/m² | - |
| 1777994430 | 14.44° C | 91% | 1014 hPa | 0 mm | - | 74 W/m² | - |
| 1777994125 | 14.44° C | 92% | 1014.1 hPa | 0 mm | - | 96 W/m² | - |
| 1777993823 | 14.44° C | 92% | 1014 hPa | 0 mm | - | 110 W/m² | - |
| 1777993519 | 14.44° C | 93% | 1014 hPa | 0 mm | - | 104 W/m² | - |
| 1777993216 | 13.89° C | 94% | 1013.7 hPa | 0 mm | - | 116 W/m² | - |
| 1777992912 | 13.89° C | 94% | 1014 hPa | 0 mm | - | 115 W/m² | - |
| 1777992610 | 13.89° C | 95% | 1013.9 hPa | 0 mm | - | 77 W/m² | - |
| 1777992308 | 13.89° C | 95% | 1013.9 hPa | 0 mm | - | 92 W/m² | - |
| 1777992005 | 13.89° C | 96% | 1014.1 hPa | 0 mm | - | 82 W/m² | - |
| 1777991703 | 13.89° C | 96% | 1013.8 hPa | 0 mm | - | 79 W/m² | - |
| 1777991399 | 13.89° C | 97% | 1013.8 hPa | 0 mm | - | 98 W/m² | - |
| 1777991097 | 13.33° C | 97% | 1013.7 hPa | 0 mm | - | 108 W/m² | - |
| 1777990794 | 13.33° C | 97% | 1013.8 hPa | 0 mm | - | 121 W/m² | - |
| 1777990491 | 13.33° C | 97% | 1013.7 hPa | 0 mm | - | 35 W/m² | - |
| 1777989884 | 13.33° C | 97% | 1013.9 hPa | 0 mm | - | 36 W/m² | - |
| 1777989581 | 13.33° C | 97% | 1013.9 hPa | 0 mm | - | 44 W/m² | - |
| 1777989278 | 13.33° C | 97% | 1013.6 hPa | 0 mm | - | 46 W/m² | - |
| 1777988974 | 13.33° C | 97% | 1013.7 hPa | 0 mm | - | 54 W/m² | - |
| 1777988671 | 13.33° C | 97% | 1013.7 hPa | 0 mm | - | 50 W/m² | - |
| 1777988367 | 13.33° C | 97% | 1013.8 hPa | 0 mm | - | 39 W/m² | - |
| 1777988065 | 13.33° C | 97% | 1013.8 hPa | 0 mm | - | 36 W/m² | - |
| 1777987760 | 13.33° C | 97% | 1013.8 hPa | 0 mm | - | 31 W/m² | - |
* Rain latest hour (hover to see other rain measurements)
** Current wind speed in m/s (hover to see current wind gust speed)